Location: All Nations United Methodist Church
(33.0215°N, 96.7483°W)
Time: 15:04:39
(UTC+00:00)

COSMO-SKYMED 1 - Pass Details

Date: 24 January 2021
Orbit: 621 x 623 km, 97.9° (Epoch: 07 March)

Event Time Altitude Azimuth Distance (km) Brightness Sun altitude
Rises 12:12:18 0° 183° (S) 2,887 6.1 -15.7°
Reaches altitude 10° 12:14:35 10° 190° (S) 1,985 5.2 -15.2°
Maximum altitude 12:18:40 41° 261° (W) 900 2.9 -14.4°
Drops below altitude 10° 12:22:47 10° 332° (NNW) 1,998 4.8 -13.6°
Enters shadow 12:23:05 - 334° (NNW) 2,112 4.9 -13.5°
